Location: *
(58.4167°N, 22.5000°E)
Time: 20:16:56
(UTC+00:00)

CZ-4C R/B - Pass Details

Date: 22 September 2019
Orbit: 654 x 1348 km, 63.4° (Epoch: 15 October)

Event Time Altitude Azimuth Distance (km) Brightness Sun altitude
Rises 21:00:32 0° 305° (NW) 3,669 6.4 -29.2°
Reaches altitude 10° 21:02:57 10° 302° (WNW) 2,815 5.6 -29.3°
Maximum altitude 21:09:37 65° 223° (SW) 1,256 2.8 -29.7°
Enters shadow 21:09:49 65° 214° (SW) 1,262 2.8 -29.7°
